Location: Aulagny
(45.1643°N, 4.3096°E)
Time: 03:41:29
(UTC+00:00)

ATLAS 3B R/B - Pass Details

Date: 21 October 2019
Orbit: 1029 x 1166 km, 63.8° (Epoch: 12 November)

Event Time Altitude Azimuth Distance (km) Brightness Sun altitude
Rises 20:13:57 0° 236° (WSW) 3,820 6.0 -36.4°
Reaches altitude 10° 20:16:42 10° 242° (WSW) 2,854 5.3 -36.8°
Enters shadow 20:22:25 46° 296° (WNW) 1,356 3.4 -37.7°
